Location: Nassau
(25.0830°N, 77.3500°W)
Time: 08:33:13
(UTC-05:00)

ISS - All Passes

Search period start: 22 December 2014 00:00
Search period end: 01 January 2015 00:00
Orbit: 404 x 414 km, 51.6° (Epoch: 22 December)

Date Brightness Start Highest point End Pass type
(mag) Time Alt. Az. Time Alt. Az. Time Alt. Az.
22 Dec - 12:08:59 10° WSW 12:12:09 43° NW 12:15:19 10° NNE daylight
22 Dec - 20:20:09 10° NNW 20:23:14 39° NE 20:26:18 10° ESE night (unlit)
23 Dec - 11:18:03 10° SW 11:21:20 76° SE 11:24:38 10° NE daylight
23 Dec - 19:29:56 10° N 19:32:20 19° NE 19:34:43 10° E night (unlit)
23 Dec - 21:06:16 10° WNW 21:08:47 21° SW 21:11:18 10° S night (unlit)
24 Dec - 10:27:37 10° S 10:30:34 30° SE 10:33:30 10° ENE daylight
24 Dec - 12:05:13 10° WNW 12:07:09 15° NW 12:09:04 10° N daylight
24 Dec - 20:14:52 10° NW 20:18:01 49° SW 20:21:10 10° SSE night (unlit)
25 Dec - 09:38:04 10° SSE 09:39:48 14° SE 09:41:31 10° E daylight
25 Dec - 11:13:13 10° WSW 11:16:07 28° NW 11:19:02 10° NNE daylight
25 Dec - 19:23:55 10° NW 19:27:09 63° NE 19:30:22 10° SE visible
26 Dec - 10:21:52 10° SW 10:25:09 66° NW 10:28:26 10° NE daylight
26 Dec - 18:33:20 10° NNW 18:36:10 27° NE 18:38:59 10° ESE visible
26 Dec - 20:10:44 10° W 20:12:29 14° SW 20:14:14 10° SSW visible
27 Dec - 09:31:01 10° SSW 09:34:12 47° SE 09:37:24 10° NE daylight
27 Dec - 11:10:16 10° NW 11:10:56 10° NW 11:11:35 10° NNW daylight
27 Dec - 17:43:16 10° N 17:45:02 14° NE 17:46:48 10° ENE daylight
27 Dec - 19:18:42 10° WNW 19:21:37 31° SW 19:24:32 10° SSE visible
28 Dec - 08:40:47 10° S 08:43:18 20° SE 08:45:48 10° ENE daylight
28 Dec - 10:17:13 10° W 10:19:44 20° NW 10:22:15 10° N daylight
28 Dec - 18:27:24 10° NW 18:30:40 81° SW 18:33:54 10° SE visible
29 Dec - 09:25:26 10° WSW 09:28:35 42° NW 09:31:45 10° NNE daylight
29 Dec - 17:36:30 10° NNW 17:39:36 40° NE 17:42:40 10° ESE daylight
30 Dec - 08:34:12 10° SW 08:37:30 77° SE 08:40:47 10° NE daylight
30 Dec - 16:45:58 10° N 16:48:24 19° NE 16:50:48 10° E daylight
30 Dec - 18:22:19 10° WNW 18:24:50 21° SW 18:27:20 10° S visible
31 Dec - 07:43:30 10° S 07:46:26 30° SE 07:49:22 10° ENE daylight
31 Dec - 09:21:05 10° WNW 09:22:59 15° NW 09:24:55 10° N daylight
31 Dec - 17:30:37 10° NW 17:33:47 49° SW 17:36:56 10° SSE daylight
